Weather History for Lumberton, NC

Change the Weather History Date:

Saturday, October 2, 2010

  Actual Average Record
Temperature  
Mean Temperature 66 °F 68 °F  
Max Temperature 76 °F 79 °F 89 °F (2012)
Min Temperature 55 °F 57 °F 43 °F (2011)
Degree Days  
Heating Degree Days 0 1  
Month to date heating degree days 0 2  
Since 1 July heating degree days 0 11  
Cooling Degree Days 1 4  
Month to date cooling degree days 5 9  
Year to date cooling degree days 2385 1830  
Growing Degree Days 15 (Base 50)    
Moisture  
Dew Point 52 °F    
Average Humidity 65    
Maximum Humidity 86    
Minimum Humidity 43    
Precipitation  
Precipitation 0.00 in 0.14 in 0.35 in (2012)
Month to date precipitation 0.00 0.29  
Year to date precipitation 32.69 35.48  
Sea Level Pressure  
Sea Level Pressure 29.91 in    
Wind  
Wind Speed 7 mph (NE)    
Max Wind Speed 14 mph    
Max Gust Speed 20 mph    
Visibility 10 miles    
Events      
T = Trace of Precipitation, MM = Missing Value Source: NWS Daily Summary

Daily Weather History Graph

Daily Weather History Graph

Search for Another Location

Airport:

Trip Planner

Search our weather history database for the weather conditions in past years. The results will help you decide how hot, cold, wet, or windy it might be!

Date:

Astronomy

Oct. 02, 2010 Rise Set
Actual Time 7:11 AM EDT 6:58 PM EDT
Civil Twilight 6:46 AM EDT 7:24 PM EDT
Nautical Twilight 6:17 AM EDT 7:53 PM EDT
Astronomical Twilight 5:47 AM EDT 8:22 PM EDT
Moon 1:09 AM EDT (10/2) 3:31 PM EDT (10/2)
Length of Visible Light 12h 37m
Length of Day
11h 47m
Waning Crescent, 33% of the Moon is Illuminated
Oct 2
Waning Crescent
Oct 7
New
Oct 14
First Quarter
Oct 22
Full
Oct 30
Last Quarter

Hourly Weather History & Observations

Time (EDT) Temp. Dew Point Humidity Pressure Visibility Wind Dir Wind Speed Gust Speed Precip Events Conditions
12:54 AM 60.1 °F 52.0 °F 75% 29.88 in 10.0 mi NNE 4.6 mph - N/A   Clear
1:54 AM 60.1 °F 52.0 °F 75% 29.89 in 10.0 mi NNE 5.8 mph - N/A   Clear
2:54 AM 59.0 °F 52.0 °F 78% 29.90 in 10.0 mi NE 8.1 mph - N/A   Clear
3:54 AM 57.0 °F 52.0 °F 83% 29.91 in 10.0 mi NNE 3.5 mph - N/A   Clear
4:54 AM 55.9 °F 52.0 °F 87% 29.93 in 10.0 mi North 4.6 mph - N/A   Clear
5:54 AM 55.0 °F 51.1 °F 86% 29.94 in 10.0 mi North 6.9 mph - N/A   Clear
6:54 AM 55.0 °F 50.0 °F 83% 29.94 in 10.0 mi NNE 5.8 mph - N/A   Clear
7:54 AM 57.0 °F 48.9 °F 74% 29.95 in 10.0 mi NNE 6.9 mph - N/A   Clear
8:54 AM 61.0 °F 48.9 °F 64% 29.96 in 10.0 mi NNE 11.5 mph - N/A   Clear
9:54 AM 64.9 °F 50.0 °F 58% 29.97 in 10.0 mi NE 9.2 mph - N/A   Clear
10:54 AM 69.1 °F 50.0 °F 51% 29.97 in 10.0 mi NNE 11.5 mph - N/A   Clear
11:54 AM 72.0 °F 51.1 °F 48% 29.96 in 10.0 mi NNE 10.4 mph - N/A   Clear
12:54 PM 73.0 °F 52.0 °F 48% 29.95 in 10.0 mi Variable 6.9 mph - N/A   Clear
1:54 PM 73.9 °F 52.0 °F 46% 29.92 in 10.0 mi ENE 9.2 mph - N/A   Clear
2:54 PM 75.0 °F 52.0 °F 44% 29.89 in 10.0 mi East 8.1 mph - N/A   Clear
3:54 PM 75.9 °F 51.1 °F 42% 29.87 in 10.0 mi NE 8.1 mph - N/A   Clear
4:54 PM 75.0 °F 51.1 °F 43% 29.87 in 10.0 mi East 5.8 mph - N/A   Mostly Cloudy
5:54 PM 73.9 °F 52.0 °F 46% 29.87 in 10.0 mi NE 5.8 mph - N/A   Scattered Clouds
6:54 PM 71.1 °F 53.1 °F 53% 29.88 in 10.0 mi ENE 5.8 mph - N/A   Overcast
7:54 PM 68.0 °F 54.0 °F 61% 29.88 in 10.0 mi NE 4.6 mph - N/A   Mostly Cloudy
8:54 PM 64.0 °F 55.9 °F 75% 29.89 in 10.0 mi North 3.5 mph - N/A   Clear
9:54 PM 63.0 °F 55.0 °F 75% 29.88 in 10.0 mi NNE 5.8 mph - N/A   Clear
10:54 PM 62.1 °F 55.0 °F 78% 29.89 in 10.0 mi NNE 5.8 mph - N/A   Clear
11:54 PM 61.0 °F 54.0 °F 78% 29.88 in 10.0 mi North 5.8 mph - N/A   Clear